• Join FlightAware (Why Join?)
  • Login
  • US Flag 
04:28PM EST


 

Airport Tracker/Info


-or-


 

Live Flight TrackerFlight Track Log ✈ TAM3270 ✈ 26-Aug-2013 ✈ SBSP / CGH - SBRP / RAO

Flight Track Log - Related Links

Times and Time Zones

All times are in EDT time to prevent confusion due to time zone crossing. See the TAM3270 flight status page for this flight to view local times or setup timezone preferences in your user account.

Time Position Orientation Groundspeed Altitude Reporting Facility
EDT Latitude Longitude Course Direction KTS MPH feet Rate Location/Type
05:42AM -23.6200 -46.6610 37° Northeast  Level FlightAware
05:43AM -23.6400 -46.6470 147° Southeast 158 182 3,100 2,494 Climbing FlightAware
05:44AM -23.6490 -46.6390 141° Southeast 168 193 3,700 1,846 Climbing FlightAware
05:44AM -23.6520 -46.6300 110° East 186 214 3,900 1,286 Climbing FlightAware
05:44AM -23.6530 -46.6260 105° East 195 224 4,000 1,655 Climbing FlightAware
05:44AM -23.6430 -46.6040 64° Northeast 214 246 4,700 1,800 Climbing FlightAware
05:44AM -23.6380 -46.6000 36° Northeast 211 243 4,900 2,308 Climbing FlightAware
05:45AM -23.6210 -46.5890 31° Northeast 226 260 5,700 2,077 Climbing FlightAware
05:45AM -23.6160 -46.5850 36° Northeast 231 266 5,800 857 Climbing FlightAware
05:45AM -23.6090 -46.5770 46° Northeast 261 300 5,900 429 Climbing FlightAware
05:45AM -23.6070 -46.5710 70° East 276 318 5,900  Level FlightAware
05:45AM -23.6020 -46.5580 67° East 284 327 5,900  Level FlightAware
05:45AM -23.5960 -46.5290 77° East 289 333 5,900 171 Level FlightAware
05:46AM -23.5930 -46.5060 82° East 288 331 6,000 1,371 Climbing FlightAware
05:46AM -23.5880 -46.4800 78° East 294 338 6,700 2,700 Climbing FlightAware
05:46AM -23.5810 -46.4490 76° East 303 349 7,800 3,150 Climbing FlightAware
05:47AM -23.5750 -46.4190 78° East 307 353 8,800 2,780 Climbing FlightAware
05:47AM -23.5680 -46.3870 77° East 318 366 9,700 2,000 Climbing FlightAware
05:48AM -23.5530 -46.3220 76° East 359 413 10,800 1,622 Climbing FlightAware
05:48AM -23.5340 -46.2590 72° East 390 449 11,700 1,920 Climbing FlightAware
05:49AM -23.5160 -46.2380 47° Northeast 380 437 12,400 2,229 Climbing FlightAware
05:49AM -23.4830 -46.2220 24° Northeast 377 434 13,000 1,935 Climbing FlightAware
05:49AM -23.4650 -46.2210 North 383 441 13,400 2,400 Climbing FlightAware
05:49AM -23.4480 -46.2230 354° North 378 435 13,800 2,526 Climbing FlightAware
05:49AM -23.4310 -46.2300 339° North 366 421 14,200 2,267 Climbing FlightAware
05:50AM -23.3820 -46.2670 325° Northwest 367 422 15,500 2,400 Climbing FlightAware
05:50AM -23.3390 -46.3000 325° Northwest 375 432 16,800 2,314 Climbing FlightAware
05:51AM -23.2810 -46.3410 327° Northwest 370 426 18,200 2,143 Climbing FlightAware
05:52AM -23.2360 -46.3720 328° Northwest 379 436 19,300 1,886 Climbing FlightAware
05:52AM -23.1770 -46.4130 327° Northwest 386 444 20,400 1,760 Climbing FlightAware
05:53AM -23.1240 -46.4500 327° Northwest 387 445 21,500 2,031 Climbing FlightAware
05:53AM -23.0790 -46.4820 327° Northwest 383 441 22,600 1,971 Climbing FlightAware
05:54AM -23.0180 -46.5240 328° Northwest 379 436 23,800 1,120 Climbing FlightAware
05:55AM -22.9660 -46.5540 332° Northwest 373 429 24,000 185 Climbing FlightAware
05:55AM -22.9160 -46.5730 341° North 371 427 24,000  Level FlightAware
05:56AM -22.8380 -46.5890 349° North 375 432 24,000  Level FlightAware
05:56AM -22.7760 -46.5990 352° North 373 429 24,000  Level FlightAware
05:57AM -22.7160 -46.6090 351° North 372 428 24,000  Level FlightAware
05:58AM -22.6550 -46.6190 351° North 374 430 24,000  Level FlightAware
05:58AM -22.5940 -46.6290 351° North 373 429 24,000  Level FlightAware
05:59AM -22.5310 -46.6390 352° North 373 429 24,000  Level FlightAware
05:59AM -22.4710 -46.6490 351° North 374 430 24,000  Level FlightAware
06:00AM -22.4100 -46.6590 351° North 372 428 24,000  Level FlightAware
06:01AM -22.3490 -46.6690 351° North 371 427 24,000  Level FlightAware
06:01AM -22.2870 -46.6790 352° North 372 428 24,000  Level FlightAware
06:02AM -22.2250 -46.6880 352° North 372 428 24,000  Level FlightAware
06:02AM -22.1650 -46.6960 353° North 372 428 24,000  Level FlightAware
06:03AM -22.1210 -46.7040 350° North 380 437 24,000  Level FlightAware
06:03AM -22.0620 -46.7390 331° Northwest 378 435 24,000  Level FlightAware
06:04AM -22.0090 -46.7720 330° Northwest 372 428 24,000  Level FlightAware
06:05AM -21.9560 -46.8050 330° Northwest 372 428 24,000  Level FlightAware
06:05AM -21.9030 -46.8380 330° Northwest 373 429 24,000 -257 Level FlightAware
06:06AM -21.8480 -46.8710 331° Northwest 372 428 23,700 -696 Descending FlightAware
06:06AM -21.7970 -46.9030 330° Northwest 361 415 23,200 -1,250 Descending FlightAware
06:07AM -21.7410 -46.9370 331° Northwest 355 409 22,200 -1,629 Descending FlightAware
06:07AM -21.6970 -46.9650 329° Northwest 347 399 21,300 -1,588 Descending FlightAware
06:08AM -21.6500 -46.9940 330° Northwest 338 389 20,400 -1,886 Descending FlightAware
06:09AM -21.6010 -47.0250 330° Northwest 337 388 19,100 -2,591 Descending FlightAware
06:09AM -21.5910 -47.0370 312° West 342 394 18,500 -4,098 Descending FlightAware
06:09AM -21.5660 -47.0830 300° West 364 419 16,300 -4,836 Descending FlightAware
06:10AM -21.5330 -47.1430 301° West 396 456 13,100 -3,500 Descending FlightAware
06:10AM -21.5000 -47.1990 302° West 350 403 12,100 -2,083 Descending FlightAware
06:11AM -21.4700 -47.2500 302° West 329 379 10,600 -1,886 Descending FlightAware
06:12AM -21.4440 -47.2940 302° West 292 336 9,900 -1,560 Descending FlightAware
06:12AM -21.4340 -47.3140 298° West 286 329 9,300 -2,333 Descending FlightAware
06:12AM -21.4270 -47.3420 285° West 284 327 8,500 -2,400 Descending FlightAware
06:13AM -21.4230 -47.3700 279° West 279 321 7,700 -2,063 Descending FlightAware
06:13AM -21.4210 -47.3850 278° West 275 316 7,400 -1,895 Descending FlightAware
06:13AM -21.4160 -47.4210 278° West 277 319 6,500 -1,895 Descending FlightAware
06:13AM -21.4140 -47.4360 278° West 277 319 6,200 -1,688 Descending FlightAware
06:14AM -21.4100 -47.4640 279° West 276 318 5,600 -1,571 Descending FlightAware
06:14AM -21.4060 -47.4940 278° West 272 313 5,100 -1,135 Descending FlightAware
06:14AM -21.4030 -47.5130 280° West 270 311 4,900 -545 Descending FlightAware
06:15AM -21.4000 -47.5360 278° West 256 295 4,800 -364 Descending FlightAware
06:15AM -21.3940 -47.5540 290° West 242 278 4,700 -261 Descending FlightAware
06:15AM -21.3880 -47.5610 313° West 241 277 4,700 -214 Level FlightAware
06:15AM -21.3720 -47.5790 314° West 240 276 4,600 -143 Descending FlightAware
06:16AM -21.3560 -47.5980 312° West 238 274 4,600 -136 Level FlightAware
06:16AM -21.3390 -47.6160 315° West 239 275 4,500 -286 Descending FlightAware
06:16AM -21.3240 -47.6330 313° West 237 273 4,400 -375 Descending FlightAware
06:17AM -21.3150 -47.6430 314° West 233 268 4,300 -500 Descending FlightAware
06:17AM -21.2970 -47.6630 314° West 219 252 4,100 -545 Descending FlightAware
06:17AM -21.2840 -47.6780 313° West 207 238 3,900 -545 Descending FlightAware
06:18AM -21.2750 -47.6870 317° Northwest 199 229 3,800 -333 Descending FlightAware
06:18AM -21.2610 -47.7030 313° West 193 222 3,700 -133 Descending FlightAware
06:18AM -21.2480 -47.7180 313° West 167 192 3,700 -158 Level FlightAware
06:19AM -21.2400 -47.7270 314° West 155 178 3,600 -600 Descending FlightAware
06:19AM -21.2280 -47.7390 317° Northwest 141 162 3,300 -682 Descending FlightAware
06:19AM -21.2180 -47.7460 327° Northwest 134 154 3,100 -450 Descending FlightAware
06:20AM -21.2060 -47.7510 339° North 134 154 3,000 -409 Descending FlightAware
06:20AM -21.1920 -47.7560 342° North 134 154 2,800 -514 Descending FlightAware
06:20AM -21.1850 -47.7580 345° North 136 157 2,700 -667 Descending FlightAware
06:21AM -21.1700 -47.7630 343° North 140 161 2,400 -800 Descending FlightAware
06:21AM -21.1570 -47.7670 344° North 142 163 2,100 -900 Descending FlightAware
06:21AM -21.1450 -47.7710 343° North 139 160 1,800 -900 Descending FlightAware
06:22AM -21.1360 -47.7740 343° North 115 132 -7,200 Descending FlightAware